Overview Statistics Trail Chart Weather Telemetry Raw packets
 

This is the latest recevied weather packets stored in our database for station/object wb2ifs-13. If no packets are shown the sender has not sent any weather packets the latest 10 day(s).

<< 35 36 37 38 39 >>
Time Temp. Humidity Pressure Rain* Wind** Luminosity Snow
1787773504 30° C 55% 1018.1 hPa 0 mm - - -
1787772603 29.44° C 54% 1018.4 hPa 0 mm - - -
1787771703 29.44° C 53% 1018.4 hPa 0 mm - - -
1787770802 29.44° C 53% 1018.5 hPa 0 mm - - -
1787769903 29.44° C 52% 1018.5 hPa 0 mm - - -
1787769003 29.44° C 55% 1018.6 hPa 0 mm - - -
1787768103 28.89° C 55% 1018.9 hPa 0 mm - - -
1787767203 28.89° C 54% 1019 hPa 0 mm - - -
1787766302 28.89° C 57% 1019.2 hPa 0 mm - - -
1787765402 28.89° C 57% 1019.4 hPa 0 mm - - -
1787764502 28.89° C 55% 1019.5 hPa 0 mm - - -
1787763602 28.89° C 56% 1019.6 hPa 0 mm - - -
1787762702 28.89° C 58% 1019.9 hPa 0 mm - - -
1787761803 28.33° C 58% 1020 hPa 0 mm - - -
1787760902 28.33° C 58% 1020.2 hPa 0 mm - - -
1787760003 27.78° C 61% 1020.3 hPa 0 mm - - -
1787759102 27.22° C 64% 1020.4 hPa 0 mm - - -
1787758202 27.22° C 62% 1020.4 hPa 0 mm - - -
1787757302 27.22° C 63% 1020.3 hPa 0 mm - - -
1787756405 27.22° C 64% 1020.6 hPa 0 mm - - -
1787755503 26.67° C 66% 1020.4 hPa 0 mm - - -
1787754604 26.67° C 72% 1020.5 hPa 0 mm - - -
1787753703 26.11° C 70% 1020.3 hPa 0 mm - - -
1787752804 26.11° C 69% 1020.2 hPa 0 mm - - -
1787751903 25° C 71% 1020.3 hPa 0 mm - - -

* Rain latest hour (hover to see other rain measurements)
** Current wind speed in m/s (hover to see current wind gust speed)